This is the latest recevied weather packets stored in our database for station/object WB4ROX. If no packets are shown the sender has not sent any weather packets the latest 10 day(s).
| Time | Temp. | Humidity | Pressure | Rain* | Wind** | Luminosity | Snow |
|---|---|---|---|---|---|---|---|
| 1777565526 | 7.78° C | 81% | 1014.5 hPa | 0 mm | - | 306 W/m² | - |
| 1777565223 | 7.78° C | 80% | 1014.4 hPa | 0 mm | - | 648 W/m² | - |
| 1777564919 | 7.22° C | 82% | 1014.6 hPa | 0 mm | - | 895 W/m² | - |
| 1777564614 | 7.22° C | 84% | 1014.5 hPa | 0 mm | - | 229 W/m² | - |
| 1777564309 | 7.22° C | 83% | 1014.6 hPa | 0 mm | - | 216 W/m² | - |
| 1777564006 | 7.22° C | 84% | 1014.5 hPa | 0 mm | - | 233 W/m² | - |
| 1777563702 | 7.22° C | 86% | 1014.8 hPa | 0 mm | - | 469 W/m² | - |
| 1777563398 | 7.22° C | 87% | 1014.3 hPa | 0 mm | - | 650 W/m² | - |
| 1777563093 | 6.67° C | 91% | 1014.3 hPa | 0 mm | - | 506 W/m² | - |
| 1777562789 | 6.67° C | 91% | 1014.1 hPa | 0 mm | - | 222 W/m² | - |
| 1777562487 | 7.22° C | 94% | 1014.4 hPa | 0 mm | - | 181 W/m² | - |
| 1777562184 | 6.67° C | 95% | 1014.5 hPa | 0 mm | - | 496 W/m² | - |
| 1777561882 | 6.67° C | 98% | 1014.3 hPa | 0 mm | - | 635 W/m² | - |
| 1777561579 | 6.11° C | 98% | 1014.1 hPa | 0 mm | - | 252 W/m² | - |
| 1777561275 | 6.11° C | 98% | 1014.4 hPa | 0 mm | - | 321 W/m² | - |
| 1777560975 | 5.56° C | 99% | 1014.3 hPa | 0 mm | - | 189 W/m² | - |
| 1777560670 | 5.56° C | 98% | 1014.4 hPa | 0 mm | - | 177 W/m² | - |
| 1777560368 | 5.56° C | 98% | 1014.4 hPa | 0 mm | - | 136 W/m² | - |
| 1777560066 | 5.56° C | 98% | 1014.4 hPa | 0 mm | - | 468 W/m² | - |
| 1777559761 | 5.56° C | 98% | 1014.3 hPa | 0 mm | - | 137 W/m² | - |
| 1777559458 | 5.56° C | 98% | 1014.1 hPa | 0 mm | - | 161 W/m² | - |
| 1777559155 | 5.56° C | 99% | 1014.1 hPa | 0 mm | - | 79 W/m² | - |
| 1777558850 | 5° C | 98% | 1014 hPa | 0 mm | - | 197 W/m² | - |
| 1777558546 | 5° C | 98% | 1014.3 hPa | 0 mm | - | 99 W/m² | - |
| 1777558242 | 5.56° C | 99% | 1014.3 hPa | 0 mm | - | 284 W/m² | - |
* Rain latest hour (hover to see other rain measurements)
** Current wind speed in m/s (hover to see current wind gust speed)